Regional Weather Roundup
Issued by NWS

Home | Current Version | Previous Version | Text Only | Print | Product List | Glossary On
Versions: 1 2 3 4 5 6 7 8 9 10 11 12 13 14 15 16 17 18 19 20 21 22 23 24 25 26 27 28 29 30 31 32 33 34 35 36 37 38 39 40 41 42 43 44 45 46 47 48 49 50
000
ASUS43 KMKX 220120
RWRWI

WISCONSIN REGIONAL WEATHER ROUNDUP
NATIONAL WEATHER SERVICE MILWAUKEE/SULLIVAN WI
700 PM CST WED FEB 21 2018

NOTE: "FAIR" INDICATES FEW OR NO CLOUDS BELOW 12,000 FEET WITH NO
SIGNIFICANT WEATHER AND/OR OBSTRUCTIONS TO VISIBILITY.

WIZ001-002-006>008-014>016-023>028-220200-
NORTHWEST WISCONSIN

CITY           SKY/WX    TMP DP  RH WIND       PRES   REMARKS
SUPERIOR ARPT  FAIR      16   3  56 SW9       30.60R WCI   4
ASHLAND        FAIR      11   2  67 SW8       30.61R WCI  -1
HAYWARD        FAIR      12   3  67 S6        30.61R WCI   3
SIREN          FAIR       8  -2  64 CALM      30.62S
CUMBERLAND     FAIR       9   1  72 S3        30.61F
RICE LAKE      FAIR      10   4  76 CALM      30.64S
CHETEK         FAIR      10   3  72 CALM      30.64R
LADYSMITH      FAIR      11   3  70 CALM      30.64R
EAU CLAIRE     FAIR      12   3  67 CALM      30.65R
MENOMONIE      FAIR      14   4  65 CALM      30.66S
NEW RICHMOND   FAIR      12   3  67 S6        30.63S WCI   3
OSCEOLA        FAIR      12   3  67 S7        30.66S WCI   2
$$

WIZ003>005-009-010-017-018-220200-
NORTH CENTRAL WISCONSIN

CITY           SKY/WX    TMP DP  RH WIND       PRES   REMARKS
MANITOWISH WTR FAIR       5   5 100 CALM      30.57R
ARBOR VITAE    FAIR      11   7  82 CALM      30.57R
WOODRUFF       FAIR      11   7  82 CALM      30.57R
RHINELANDER    FAIR      11   4  73 W3        30.58R
EAGLE RIVER    FAIR       6   1  80 CALM      30.56S
LAND O LAKES   FAIR       2  -1  86 CALM      30.58R
PHILLIPS       FAIR       9   4  79 CALM      30.59R
TOMAHAWK       FAIR       9   4  82 CALM      30.60R
MEDFORD        FAIR      11   2  66 SW3       30.60R
MERRILL        FAIR      12   5  73 W5        30.62R WCI   4
$$

WIZ029-030-035-036-043>047-220200-
CENTRAL WISCONSIN

CITY           SKY/WX    TMP DP  RH WIND       PRES   REMARKS
WAUSAU         FAIR      15   3  59 W3        30.61R
MOSINEE        PTCLDY    14   7  73 VRB3      30.63R
MARSHFIELD     FAIR      14   8  77 W3        30.62R
STEVENS POINT  FAIR      11   8  84 CALM      30.65R
WAUPACA        FAIR      21  10  62 W3        30.67R
WAUTOMA        FAIR      19  13  77 CALM      30.68R
WISC RAPIDS    FAIR      15   9  76 CALM      30.66R
CAMP DOUGLAS   MOCLDY    16  12  86 CALM      30.66R
$$

WIZ011>013-019>022-031-037>040-048>050-220200-
NORTHEAST WISCONSIN

CITY           SKY/WX    TMP DP  RH WIND       PRES   REMARKS
ANTIGO         FAIR      10   6  82 SW6       30.60R WCI   1
SHAWANO        FAIR      21  10  63 CALM      30.67R
OCONTO         FAIR      21  10  63 SW3       30.66R
STURGEON BAY   FAIR      21  12  68 SW5       30.65R WCI  15
GREEN BAY      FAIR      24  12  60 W6        30.67R WCI  17
MANITOWOC      FAIR      25  13  60 NW9       30.66R WCI  15
APPLETON       PTCLDY    19   7  58 W7        30.64R WCI  10
CLINTONVILLE   FAIR      20   9  62 W5        30.67R WCI  13
OSHKOSH        FAIR      22  10  60 NW5       30.66R WCI  16
$$

WIZ032>034-041-042-053>061-220200-
SOUTHWEST WISCONSIN

CITY           SKY/WX    TMP DP  RH WIND       PRES   REMARKS
LA CROSSE      FAIR      22  14  71 CALM      30.68R
SPARTA         FAIR      19  17  90 CALM      30.68R
VIROQUA        FAIR      21  17  84 CALM      30.63R
BOSCOBEL       FAIR      24  13  62 CALM      30.68R
PRAIRIE DU CHI FAIR      24  10  53 N3        30.67R
PLATTEVILLE    FAIR      26  17  69 N6        30.64S WCI  19
$$

WIZ056-057-062-063-064-067-068-220200-
SOUTH CENTRAL WISCONSIN

CITY           SKY/WX    TMP DP  RH WIND       PRES   REMARKS
REEDSBURG      FAIR      22  12  65 NE3       30.66R
BARABOO/DELLS  FAIR      23  10  59 CALM      30.66R
LONE ROCK      FAIR      26  14  60 N5        30.67R WCI  20
MINERAL POINT  FAIR      27  14  59 N5        30.62S WCI  21
MADISON        MOCLDY    23  12  62 N3        30.66R
MIDDLETON      FAIR      27  13  56 N5        30.65S WCI  21
WATERTOWN      FAIR      24  13  62 N6        30.66R WCI  17
MONROE         FAIR      27  18  69 N6        30.62S WCI  20
JANESVILLE     CLOUDY    27  16  63 NE5       30.65R WCI  21
$$

WIZ051-052-058>065-066-070>072-220200-
SOUTHEAST WISCONSIN

CITY           SKY/WX    TMP DP  RH WIND       PRES   REMARKS
MILWAUKEE      MOCLDY    28  16  60 N6        30.65R WCI  22
WAUKESHA       CLEAR     21  14  73 NW5       30.66R WCI  15
MILWAUKEE/TIMM CLEAR     25  12  58 N5        30.66R WCI  19
RACINE         FAIR      26  17  68 NE5       30.67R WCI  20
BURLINGTON     FAIR      25  15  65 N5        30.65R WCI  19
KENOSHA        FAIR      26  18  71 NE5       30.65R WCI  20
FOND DU LAC    FAIR      24  12  60 NW5       30.66R WCI  18
SHEBOYGAN      FAIR      24  12  60 NW3       30.66R
WEST BEND      FAIR      25  14  63 NW6       30.65R WCI  18
JUNEAU         FAIR      23  12  61 CALM      30.67R
$$

LSZ147-162-220200-
LAKE SUPERIOR

STATION/POSITION TIME  TEMP    WIND        PRES    WAVE
                       AIR SEA DIR/SP/G            HT/PER
                 (UTC) (F)     (DEG/KT/KT) (MB)    (FT/S)
DEVILS ISLAND    0000   23     230/ 10/ 14 1036.5R
SAXON HARBOR     0030   14     190/  4/  6 1035.9R
$$

LMZ867-665-643>646-220200-
LAKE MICHIGAN

STATION/POSITION TIME  TEMP    WIND        PRES    WAVE
                       AIR SEA DIR/SP/G            HT/PER
                 (UTC) (F)     (DEG/KT/KT) (MB)    (FT/S)
NORTHPORT PIER   0040   21                 1037.3R
KEWAUNEE LAKESHO 0054   24     270/  2/  3 1037.1R
SHEBOYGAN LAKESH 0000   26     300/  5/  6 1038.6R
PORT WASHINGTON  0030   27     310/  3/  5 1038.9R
MILWAUKEE LAKESH 0100   27     340/  5/  7   N/A
KENOSHA   LAKESH 0000   28      30/  6/  7 1036.9
$$

TC  - TEMPERATURE IN CELSIUS
VSB - VISIBILITY IN STATUTE MILES
WCI - WIND CHILL INDEX
HX  - HEAT INDEX




USA.gov is the U.S. government's official web portal to all federal, state and local government web resources and services.